Location: Bathurst
(33.4193°S, 149.5775°E)
Time: 20:20:57
(UTC+10:00)

Vanguard 2 - All Passes

Search period start: 13 June 2021 00:00
Search period end: 23 June 2021 00:00
Orbit: 552 x 2937 km, 32.9° (Epoch: 12 June)

Date Brightness Start Highest point End Pass type
(mag) Time Alt. Az. Time Alt. Az. Time Alt. Az.
13 Jun - 04:34:42 10° NNE 04:38:37 14° NE 04:43:22 10° ENE visible
13 Jun - 06:37:41 10° NW 06:46:21 52° NNE 07:00:20 10° ESE visible
13 Jun - 08:45:26 10° WNW 08:57:07 85° N 09:14:40 10° E daylight
13 Jun - 10:55:10 10° W 11:10:04 85° N 11:28:17 10° ENE daylight
13 Jun - 13:06:21 10° WSW 13:23:01 60° NNW 13:39:16 10° NE daylight
13 Jun - 15:20:40 10° W 15:34:02 27° NW 15:45:41 10° N daylight
14 Jun - 04:50:06 10° N 04:55:37 21° NE 05:03:14 10° E visible
14 Jun - 06:55:00 10° NW 07:03:54 63° NNE 07:18:34 10° E daylight
14 Jun - 09:03:12 10° W 09:15:09 88° N 09:32:52 10° E daylight
14 Jun - 11:13:04 10° W 11:28:08 80° NNW 11:46:13 10° ENE daylight
14 Jun - 13:24:30 10° W 13:40:43 51° NNW 13:56:26 10° NE daylight
14 Jun - 15:40:28 10° W 15:51:19 20° NW 16:01:03 10° N daylight
15 Jun - 05:06:28 10° NNW 05:12:44 30° NE 05:22:10 10° E visible
15 Jun - 07:12:29 10° WNW 07:21:36 72° NNE 07:36:46 10° E daylight
15 Jun - 09:21:03 10° W 09:33:14 88° N 09:51:03 10° E daylight
15 Jun - 11:30:59 10° W 11:46:07 73° NNW 12:04:00 10° ENE daylight
15 Jun - 13:42:49 10° W 13:58:18 42° NW 14:13:17 10° NNE daylight
15 Jun - 16:02:05 10° WNW 16:08:36 13° NW 16:14:43 10° NNW daylight
16 Jun - 05:23:18 10° NNW 05:29:59 40° NE 05:40:40 10° E visible
16 Jun - 07:30:06 10° WNW 07:39:25 80° NNE 07:54:56 10° E daylight
16 Jun - 09:38:53 10° W 09:51:18 87° N 10:09:12 10° E daylight
16 Jun - 11:48:55 10° W 12:04:01 65° NNW 12:21:35 10° NE daylight
16 Jun - 14:01:26 10° W 14:15:48 33° NW 14:29:44 10° NNE daylight
17 Jun - 03:37:57 10° NNE 03:40:06 12° NE 03:42:30 10° ENE visible
17 Jun - 05:40:26 10° NW 05:47:23 51° NNE 05:58:58 10° E visible
17 Jun - 07:47:48 10° W 07:57:21 86° N 08:13:09 10° E daylight
17 Jun - 09:56:43 10° W 10:09:21 83° NNW 10:27:17 10° ENE daylight
17 Jun - 12:06:56 10° W 12:21:51 56° NNW 12:38:56 10° NE daylight
17 Jun - 14:20:33 10° W 14:33:16 25° NW 14:45:39 10° N daylight
18 Jun - 03:53:01 10° N 03:57:10 19° NE 04:02:40 10° E visible
18 Jun - 05:57:48 10° NW 06:04:56 63° NNE 06:17:10 10° E visible
18 Jun - 08:05:33 10° W 08:15:20 88° N 08:31:21 10° E daylight
18 Jun - 10:14:33 10° W 10:27:21 76° NNW 10:45:13 10° ENE daylight
18 Jun - 12:25:03 10° W 12:39:35 47° NNW 12:56:00 10° NE daylight
18 Jun - 14:40:35 10° W 14:50:43 18° NW 15:00:40 10° N daylight
19 Jun - 04:09:23 10° NNW 04:14:19 27° NE 04:21:31 10° E visible
19 Jun - 06:15:18 10° WNW 06:22:38 73° NNE 06:35:19 10° E visible
19 Jun - 08:23:20 10° W 08:33:20 88° N 08:49:34 10° E daylight
19 Jun - 10:32:24 10° W 10:45:18 69° NNW 11:03:00 10° ENE daylight
19 Jun - 12:43:24 10° W 12:57:16 38° NW 13:12:43 10° NNE daylight
19 Jun - 15:03:06 10° WNW 15:08:13 12° NW 15:13:19 10° NNW daylight
20 Jun - 04:26:17 10° NNW 04:31:37 37° NE 04:39:57 10° E visible
20 Jun - 06:32:56 10° WNW 06:40:26 82° N 06:53:29 10° E visible
20 Jun - 08:41:07 10° W 08:51:19 85° N 09:07:43 10° ENE daylight
20 Jun - 10:50:19 10° W 11:03:11 60° NNW 11:20:31 10° NE daylight
20 Jun - 13:02:07 10° W 13:14:55 30° NW 13:28:58 10° NNE daylight
21 Jun - 04:43:28 10° NW 04:49:02 50° NNE 04:58:09 10° E visible
21 Jun - 06:50:37 10° W 06:58:18 86° N 07:11:39 10° E daylight
21 Jun - 08:58:53 10° W 09:09:17 79° NNW 09:25:47 10° ENE daylight
21 Jun - 11:08:18 10° W 11:21:02 51° NNW 11:37:47 10° NE daylight
21 Jun - 13:21:25 10° W 13:32:33 22° NW 13:44:34 10° N daylight
22 Jun - 02:56:03 10° N 02:59:06 16° NE 03:02:54 10° ENE visible
22 Jun - 05:00:52 10° WNW 05:06:37 63° NNE 05:16:17 10° E visible
22 Jun - 07:08:20 10° W 07:16:13 88° N 07:29:51 10° E daylight
22 Jun - 09:16:40 10° W 09:27:13 72° NNW 09:43:41 10° ENE daylight
22 Jun - 11:26:27 10° W 11:38:50 42° NNW 11:54:43 10° NNE daylight
22 Jun - 13:41:56 10° WNW 13:50:13 16° NW 13:58:57 10° NNW daylight
